Content
SEND FEEDBACK

Daily
Averages
Monthly
Summary
United States of America

NORTHERN PISCATAQUIS COUNTY, MAINE


Home > North America > United States > Maine
Elevation: 963 feet     Latitude: 45 53N     Longitude: 069 11W

WEATHER
 
SELECT A DAY
Number of Records: 223,647;   Date Range: 1/1/95 - 12/18/14
 
SHARE

PRINT THIS DATA

[ ← Previous Day ]
WEATHER ALMANAC - JANUARY 31, 2013
[ Next Day → ]
[ °C ]   °F
Weather ElementAverageHighLow
Temperature41.3 °F54 °F (8:53 am)21.9 °F (11:53 pm)
Dewpoint35.6 °F52 °F (9:53 am)6.1 °F (11:53 pm)
Humidity81 %96 % (1:53 am)46 % (5:53 pm)
Barometer29.07 in29.35 in (11:53 pm)28.71 in (11:47 am)
Wind Speed12.1 mph24.2 mph (10:22 pm)
Wind Gust46 mph (1:09 pm)
Weather ElementAverage
Visibility4.4 mi
Wind DirectionSSW (204.7 °)

Weather ElementTotal
Precipitation1.25 in
Heating Degree Days27.1 (Base 65)
Averaged from 62 records on January 31, 2013
WEATHER CONDITIONS BREAKOUT
WIND DIRECTION BREAKOUT
WEATHER BY HOUR - JANUARY 31, 2013
[ °C ]   °F
Local TimeTemperatureDewpointHumidityBarometerVisibilityWind DirectionWind SpeedGust SpeedPrecipitationEventsConditions
12:53 AM50.0 °F48.0 °F93 %29.33 in1.0 miSouth (170°)9.2 mphOvercast
1:02 AM50.0 °F48.2 °F94 %29.30 in2.0 miSouth (180°)9.2 mph18.4 mphOvercast
1:17 AM51.8 °F50.0 °F94 %29.30 in3.0 miSSW (200°)8.1 mphOvercast
1:43 AM51.8 °F50.0 °F94 %29.31 in2.5 miVariable5.8 mphOvercast
1:53 AM51.1 °F50.0 °F96 %29.33 in1.8 miVariable6.9 mphOvercast
2:02 AM51.8 °F50.0 °F94 %29.29 in2.0 miVariable5.8 mphOvercast
2:19 AM51.8 °F50.0 °F94 %29.29 in1.2 miVariable4.6 mphOvercast
2:53 AM51.1 °F50.0 °F96 %29.29 in1.5 miVariable5.8 mph0.00 inRainLight Rain
3:07 AM51.8 °F50.0 °F94 %29.25 in1.2 miVariable3.5 mph0.01 inRainLight Rain
3:21 AM50.0 °F48.2 °F94 %29.24 in0.8 miSE (130°)4.6 mph0.03 inRainLight Rain
4:05 AM51.8 °F48.2 °F88 %29.17 in4.0 miVariable4.6 mph0.03 inRainLight Rain
4:25 AM51.8 °F50.0 °F94 %29.15 in4.0 miSSE (150°)9.2 mph16.1 mph0.06 inRainRain
4:53 AM51.1 °F50.0 °F96 %29.13 in5.0 miSouth (170°)11.5 mph20.7 mph0.12 inRainRain
5:53 AM52.0 °F50.0 °F93 %29.06 in7.0 miSSE (160°)10.4 mph20.7 mph0.05 inRainLight Rain
6:53 AM53.1 °F51.1 °F93 %29.01 in6.0 miSouth (180°)15.0 mph27.6 mph0.04 inRainLight Rain
7:05 AM53.6 °F51.8 °F94 %28.99 in5.0 miSouth (170°)11.5 mph31.1 mph0.01 inRainLight Rain
7:31 AM53.6 °F51.8 °F94 %28.95 in4.0 miSouth (170°)11.5 mph26.5 mph0.07 inRainRain
7:53 AM53.1 °F51.1 °F93 %28.95 in4.0 miSouth (170°)17.3 mph33.4 mph0.11 inRainRain
8:53 AM54.0 °F51.1 °F90 %28.86 in4.0 miSouth (170°)15.0 mph34.5 mph0.08 inRainLight Rain
9:12 AM53.6 °F51.8 °F94 %28.82 in1.8 miSouth (170°)15.0 mph32.2 mph0.01 inRainLight Rain
9:21 AM53.6 °F51.8 °F94 %28.82 in3.0 miSouth (180°)15.0 mph39.1 mph0.01 inRainLight Rain
9:53 AM54.0 °F52.0 °F93 %28.84 in10.0 miSouth (180°)11.5 mph29.9 mph0.01 inOvercast
10:53 AM54.0 °F51.1 °F90 %28.76 in10.0 miSSE (160°)12.7 mph24.2 mph0.00 inOvercast
11:15 AM53.6 °F51.8 °F94 %28.74 in10.0 miSouth (170°)9.2 mph24.2 mphOvercast
11:39 AM53.6 °F51.8 °F94 %28.72 in5.0 miSouth (190°)10.4 mph26.5 mph0.01 inRainLight Rain
11:47 AM53.6 °F51.8 °F94 %28.71 in1.8 miSSW (200°)9.2 mph23.0 mph0.03 inRainRain
11:53 AM53.1 °F51.1 °F93 %28.73 in1.8 miSouth (190°)8.1 mph23.0 mph0.04 inRainLight Rain
11:59 AM51.8 °F48.2 °F88 %28.76 in3.0 miWest (280°)20.7 mph31.1 mph0.00 inRainLight Rain
12:06 PM44.6 °F39.2 °F81 %28.75 in2.5 miWest (270°)20.7 mph31.1 mph0.01 inRainRain
12:12 PM42.8 °F39.2 °F87 %28.78 in1.2 miWest (260°)13.8 mph31.1 mph0.05 inRainRain
12:24 PM41.0 °F37.4 °F87 %28.78 in2.0 miWest (270°)11.5 mph26.5 mph0.10 inRainRain
12:42 PM42.8 °F35.6 °F76 %28.78 in5.0 miWest (280°)15.0 mph24.2 mph0.12 inRainLight Rain
12:53 PM41.0 °F36.0 °F82 %28.82 in10.0 miWest (280°)17.3 mph32.2 mph0.12 inRainLight Rain
1:09 PM39.2 °F33.8 °F81 %28.82 in4.0 miWest (270°)16.1 mph46.0 mph0.02 inRainLight Rain
1:35 PM39.2 °F33.8 °F81 %28.84 in10.0 miWest (270°)10.4 mph23.0 mph0.03 inRainLight Rain
1:53 PM39.9 °F34.0 °F79 %28.89 in10.0 miWest (260°)10.4 mph24.2 mph0.03 inOvercast
2:53 PM37.9 °F27.0 °F65 %28.96 in10.0 miWest (280°)9.2 mph24.2 mph0.00 inScattered Clouds
3:53 PM39.0 °F23.0 °F53 %29.00 in10.0 miWest (270°)19.6 mph33.4 mphMostly Cloudy
4:53 PM37.9 °F19.9 °F48 %29.05 in10.0 miWSW (250°)18.4 mph35.7 mphOvercast
5:53 PM36.0 °F17.1 °F46 %29.10 in10.0 miWest (260°)11.5 mph25.3 mphOvercast
7:33 PM30.2 °F23.0 °F75 %29.15 in2.5 miWest (280°)11.5 mph23.0 mph0.00 inSnowLight Snow
7:44 PM30.2 °F21.2 °F69 %29.15 in4.0 miVariable6.9 mph17.3 mph0.00 inSnowLight Snow
7:53 PM32.0 °F19.9 °F61 %29.17 in10.0 miWSW (250°)9.2 mph18.4 mph0.00 inOvercast
8:16 PM30.2 °F19.4 °F64 %29.17 in2.0 miWest (260°)13.8 mph28.8 mph0.00 inSnowLight Snow
8:21 PM30.2 °F21.2 °F69 %29.17 in1.2 miWest (260°)13.8 mph23.0 mph0.00 inSnowLight Snow
8:31 PM30.2 °F21.2 °F69 %29.17 in2.0 miWest (280°)8.1 mph18.4 mph0.00 inSnowLight Snow
8:38 PM30.2 °F21.2 °F69 %29.17 in9.0 miWest (270°)8.1 mph0.00 inOvercast
8:51 PM28.4 °F23.0 °F80 %29.18 in1.8 miWNW (290°)13.8 mph25.3 mph0.00 inSnowLight Snow
8:53 PM28.0 °F23.0 °F81 %29.21 in1.2 miWest (280°)9.2 mph25.3 mph0.00 inSnowLight Snow
9:03 PM28.4 °F21.2 °F74 %29.18 in2.0 miWest (270°)12.7 mph23.0 mph0.00 inSnowLight Snow
9:11 PM30.2 °F17.6 °F60 %29.19 in7.0 miWest (270°)15.0 mph28.8 mph0.00 inOvercast
9:26 PM28.4 °F19.4 °F69 %29.20 in1.8 miWest (270°)13.8 mph31.1 mph0.00 inSnowLight Snow
9:38 PM28.4 °F19.4 °F69 %29.21 in3.0 miWest (270°)12.7 mph23.0 mph0.00 inSnowLight Snow
9:53 PM27.0 °F19.0 °F72 %29.24 in6.0 miWest (270°)11.5 mph21.9 mph0.00 inSnowLight Snow
10:20 PM24.8 °F17.6 °F74 %29.24 in1.5 miWest (280°)19.6 mph33.4 mph0.00 inSnowLight Snow
10:22 PM24.8 °F19.4 °F80 %29.24 in0.8 miWest (280°)24.2 mph40.3 mph0.00 inSnowLight Snow
10:29 PM24.8 °F19.4 °F80 %29.24 in0.5 miWest (280°)16.1 mph40.3 mph0.01 inSnowSnow
10:36 PM24.8 °F17.6 °F74 %29.25 in1.5 miWest (270°)17.3 mph28.8 mph0.01 inSnowLight Snow
10:38 PM26.6 °F17.6 °F69 %29.25 in2.5 miWest (270°)15.0 mph28.8 mph0.01 inSnowLight Snow
10:45 PM26.6 °F15.8 °F64 %29.26 in4.0 miWest (270°)11.5 mph31.1 mph0.01 inSnowLight Snow
10:53 PM25.0 °F16.0 °F69 %29.29 in5.0 miWest (280°)17.3 mph32.2 mph0.01 inSnowLight Snow
11:53 PM21.9 °F6.1 °F51 %29.35 in10.0 miWest (280°)15.0 mph28.8 mph0.00 inPartly Cloudy
Hourly data recorded from KMLT, located miles away from Northern Piscataquis County, Maine







STORIES FROM OUR PARTNERS